sat.trackr.live / text

‹ back to catalog

STARLINK-31181

NORAD 58746 · 2024-005U

PAYLOAD ACTIVE UNKNOWN

§ Identity

Operator
Country
US
Launch date
2024-01-07
Launch site
AFETR
Launch vehicle
Mass (kg)
RCS (m²)

Purposes: comms

External: N2YO · Heavens-Above · Gunter

§ Orbital elements

Epoch: 2026-09-20T16:22:38.825184Z

Period
94.27 min
Inclination
43.0011°
Eccentricity
0.0001101
Mean motion
15.27577990 rev/d
Perigee alt
482.3 km
Apogee alt
483.8 km
Semi-major
6,861.2 km
B*
2.0570e-5
RAAN
46.3024°
Arg perigee
271.4294°
Mean anomaly
88.6432°
Rev number
15,210

§ Raw data

STARLINK-311811 58746U 24005U   26263.68239381  .00000304  00000+0  20570-4 0  99942 58746  43.0011  46.3024 0001101 271.4294  88.6432 15.27577990152104

JSON: /api/v1/satellites/58746 · /tle

For live sub-satellite position, see the globe view (requires WebGL).

§ Visibility from observer

Set your observer location to see the next 7 days of passes ≥ 10°. The values pass through the URL so the page stays shareable.

No JS? Fill the form by hand. The geolocation button needs JavaScript.